Savannah, GA

3:57 PM EDT on July 26, 2017 (GMT -0400)
Savannah International

Weather History for KSAV - March, 2014

Change the Weather History Date:

Thursday, March 27, 2014

  Actual Average Record
Temperature  
Mean Temperature 52 °F 62 °F  
Max Temperature 68 °F 73 °F 86 °F (1994)
Min Temperature 36 °F 50 °F 26 °F (1955)
Degree Days  
Heating Degree Days 13 5  
Month to date heating degree days 253 192  
Since 1 July heating degree days 1634 1709  
Cooling Degree Days 0 1  
Month to date cooling degree days 6 27  
Year to date cooling degree days 24 37  
Growing Degree Days 2 (Base 50)    
Moisture  
Dew Point 41 °F    
Average Humidity 68    
Maximum Humidity 92    
Minimum Humidity 43    
Precipitation  
Precipitation 0.00 in 0.13 in 3.98 in (2016)
Month to date precipitation 2.43 3.23  
Year to date precipitation 6.54 9.71  
Sea Level Pressure  
Sea Level Pressure 30.35 in    
Wind  
Wind Speed 7 mph (ESE)    
Max Wind Speed 20 mph    
Max Gust Speed 25 mph    
Visibility 10 miles    
Events      
T = Trace of Precipitation, MM = Missing Value Source: NWS Daily Summary

Daily Weather History Graph

Daily Weather History Graph

Search for Another Location

Airport or City:

Trip Planner

Search our weather history database for the weather conditions in past years. The results will help you decide how hot, cold, wet, or windy it might be!

Date:

Astronomy

Mar. 27, 2014 Rise Set
Actual Time 7:19 AM EDT 7:41 PM EDT
Civil Twilight 6:55 AM EDT 8:05 PM EDT
Nautical Twilight 6:26 AM EDT 8:34 PM EDT
Astronomical Twilight 5:57 AM EDT 9:03 PM EDT
Moon 4:58 AM EDT (3/27) 4:37 PM EDT (3/27)
Length of Visible Light 13h 10m
Length of Day
12h 21m
Waning Crescent, 13% of the Moon is Illuminated
Mar 27
Waning Crescent
Mar 30
New
Apr 7
First Quarter
Apr 15
Full
Apr 22
Last Quarter

Hourly Weather History & Observations

Time (EDT) Temp. Dew Point Humidity Pressure Visibility Wind Dir Wind Speed Gust Speed Precip Events Conditions
12:53 AM 41.0 °F 34.0 °F 76% 30.34 in 10.0 mi Calm Calm - N/A   Clear
1:53 AM 39.9 °F 35.1 °F 83% 30.34 in 10.0 mi Calm Calm - N/A   Clear
2:53 AM 39.0 °F 34.0 °F 82% 30.34 in 10.0 mi Calm Calm - N/A   Clear
3:53 AM 37.0 °F 33.1 °F 86% 30.33 in 10.0 mi Calm Calm - N/A   Clear
4:53 AM 37.0 °F 34.0 °F 89% 30.32 in 9.0 mi Calm Calm - N/A   Clear
5:53 AM 37.9 °F 34.0 °F 86% 30.34 in 8.0 mi Calm Calm - N/A   Mostly Cloudy
6:53 AM 37.0 °F 34.0 °F 89% 30.38 in 8.0 mi Calm Calm - N/A   Mostly Cloudy
7:53 AM 37.9 °F 35.1 °F 89% 30.40 in 9.0 mi Calm Calm - N/A   Overcast
8:53 AM 46.0 °F 41.0 °F 83% 30.40 in 9.0 mi Calm Calm - N/A   Mostly Cloudy
9:53 AM 55.9 °F 37.9 °F 51% 30.41 in 10.0 mi NE 5.8 mph - N/A   Mostly Cloudy
10:53 AM 60.1 °F 39.0 °F 46% 30.43 in 10.0 mi East 11.5 mph 17.3 mph N/A   Mostly Cloudy
11:53 AM 64.0 °F 41.0 °F 43% 30.42 in 10.0 mi ESE 13.8 mph 18.4 mph N/A   Mostly Cloudy
12:53 PM 64.9 °F 42.1 °F 43% 30.40 in 10.0 mi ESE 12.7 mph 21.9 mph N/A   Scattered Clouds
1:53 PM 66.0 °F 44.1 °F 45% 30.38 in 10.0 mi ESE 18.4 mph 23.0 mph N/A   Mostly Cloudy
2:53 PM 66.0 °F 44.1 °F 45% 30.35 in 10.0 mi ESE 15.0 mph 23.0 mph N/A   Mostly Cloudy
3:53 PM 64.9 °F 45.0 °F 48% 30.33 in 10.0 mi ESE 15.0 mph 19.6 mph N/A   Mostly Cloudy
4:53 PM 66.0 °F 46.0 °F 48% 30.33 in 10.0 mi SE 13.8 mph - N/A   Mostly Cloudy
5:53 PM 66.9 °F 46.0 °F 47% 30.32 in 10.0 mi SE 16.1 mph 21.9 mph N/A   Mostly Cloudy
6:53 PM 64.0 °F 46.0 °F 52% 30.30 in 10.0 mi SSE 13.8 mph - N/A   Mostly Cloudy
7:53 PM 62.1 °F 46.0 °F 56% 30.30 in 10.0 mi SSE 6.9 mph - N/A   Mostly Cloudy
8:53 PM 59.0 °F 46.9 °F 64% 30.29 in 10.0 mi ESE 5.8 mph - N/A   Scattered Clouds
9:53 PM 57.9 °F 48.0 °F 70% 30.30 in 10.0 mi SE 5.8 mph - N/A   Scattered Clouds
10:53 PM 57.0 °F 48.9 °F 74% 30.30 in 10.0 mi East 3.5 mph - N/A   Mostly Cloudy
11:53 PM 55.0 °F 48.9 °F 80% 30.28 in 10.0 mi ESE 4.6 mph - N/A   Mostly Cloudy